Location: Riverside Cemetery
(38.3047°N, 99.7773°W)
Time: 19:13:50
(UTC+00:00)

SAR-Lupe-4 - Pass Details

Date: 19 September 2020
Orbit: 482 x 484 km, 98.2° (Epoch: 09 October)

Event Time Altitude Azimuth Distance (km) Brightness Sun altitude
Rises 11:20:27 0° 165° (SSE) 2,534 7.2 -13.3°
Reaches altitude 10° 11:22:30 10° 165° (SSE) 1,658 6.3 -12.9°
Maximum altitude 11:26:04 87° 78° (ENE) 490 3.5 -12.2°
Drops below altitude 10° 11:29:39 10° 348° (NNW) 1,671 6.3 -11.6°
Sets 11:31:44 0° 348° (NNW) 2,555 7.2 -11.2°
